This demonstration page uses our WeatherBlox Daily Observations layout. Learn more.

Left ArrowRight Arrow

Hourly Observations for July 5, 2019

Temp ( °F °C ) Dew Point ( °F °C ) Humidity (%) Winds ( mph kmh ) Pressure ( in mb ) Visibility ( mi km ) Precip ( " mm )
12:56 am 00:56 Windy with Storms Likely 74 23.3 71 21.7 91 91 SE 23 37 29.89 1012 10 16 0.00 0.00
1:00 am 01:00 Cloudy with Thunderstorms 73 23 72 22 94 94 SSE 24 39 29.84 1011 10 16 0.00 0.00
1:12 am 01:12 Mostly Cloudy with Thunderstorms 73 23 72 22 94 94 NNW 16 26 29.88 1012 10 16 0.00 0.00
1:21 am 01:21 Mostly Cloudy with Thunderstorms 73 23 70 21 89 89 NE 8 13 29.87 1012 10 16 0.00 0.00
1:33 am 01:33 Mostly Cloudy with Thunderstorms 75 24 70 21 83 83 WSW 16 26 29.93 1013 10 16 0.00 0.00
1:40 am 01:40 Cloudy with Thunderstorms 75 24 70 21 83 83 SSW 16 26 29.93 1013 10 16 0.00 0.00
1:56 am 01:56 Cloudy with Thunderstorms 74 23.3 69 20.6 85 85 SSW 16 26 30.01 1016 10 16 0.00 0.00
2:39 am 02:39 Cloudy with Thunderstorms 66 19 63 17 88 88 SE 13 20 29.92 1013 10 16 0.00 0.00
2:56 am 02:56 Mostly Cloudy with Nearby Thunderstorms 66 18.9 63 17.2 90 90 SSE 8 13 29.91 1013 10 16 0.03 0.76
3:00 am 03:00 Mostly Cloudy with Nearby Thunderstorms 66 19 63 17 88 88 SSE 8 13 29.90 1013 10 16 0.00 0.03
3:12 am 03:12 Mostly Cloudy with Light Rain 68 20 64 18 88 88 ESE 17 28 29.86 1011 10 16 0.00 0.03
3:56 am 03:56 Mostly Cloudy 76 24.4 60 15.6 58 58 N 14 22 29.88 1012 9 14 0.00 0.03
4:04 am 04:04 Mostly Cloudy 73 23 61 16 65 65 N 15 24 29.88 1012 10 16 0.00 0.00
4:10 am 04:10 Mostly Cloudy with Nearby Thunderstorms 73 23 63 17 69 69 NNW 13 20 29.89 1012 9 14 0.00 0.00
4:14 am 04:14 Mostly Cloudy with Nearby Thunderstorms 73 23 61 16 65 65 NNW 12 19 29.89 1012 9 14 0.00 0.00
4:34 am 04:34 Cloudy with Light Rain 72 22 63 17 73 73 NNW 15 24 29.91 1013 10 16 0.00 0.00
4:52 am 04:52 Cloudy with Thunderstorms 68 20 63 17 83 83 NW 10 17 29.96 1014 10 16 0.03 0.76
5:56 am 05:56 Cloudy with Thunderstorms 66 18.9 64 17.8 93 93 NNW 8 13 30.02 1017 10 16 0.29 7.37
6:42 am 06:42 Cloudy with Thunderstorms 66 19 63 17 88 88 NNW 20 31 30.02 1017 10 16 0.06 1.52
6:56 am 06:56 Cloudy with Rain 66 18.9 63 17.2 90 90 N 21 33 30.03 1017 9 14 0.11 2.79
7:04 am 07:04 Cloudy with Thunderstorms 66 19 63 17 88 88 N 17 28 30.03 1017 9 14 0.01 0.25
7:45 am 07:45 Cloudy with Light Rain 66 19 63 17 88 88 N 18 30 30.04 1017 10 16 0.05 1.27
7:56 am 07:56 Cloudy with Nearby Thunderstorms 66 18.9 62 16.7 87 87 N 15 24 30.07 1018 10 16 0.05 1.27
8:17 am 08:17 Cloudy with Light Rain 64 18 63 17 94 94 N 18 30 30.05 1018 10 16 0.00 0.03
8:37 am 08:37 Cloudy with Nearby Thunderstorms 64 18 63 17 94 94 N 14 22 30.06 1018 10 16 0.01 0.25
8:52 am 08:52 Cloudy with Light Rain 64 18 63 17 94 94 ENE 12 19 30.04 1017 9 14 0.02 0.51
8:56 am 08:56 Cloudy with Nearby Thunderstorms 65 18.3 62 16.7 90 90 ENE 12 19 30.05 1018 10 16 0.02 0.51
9:16 am 09:16 Cloudy with Light Rain 64 18 61 16 88 88 ENE 14 22 30.00 1016 10 16 0.00 0.03
9:32 am 09:32 Partly Cloudy with Light Rain 64 18 63 17 94 94 N 7 11 30.04 1017 10 16 0.00 0.00
9:56 am 09:56 Sunny 66 18.9 62 16.7 87 87 SE 9 15 30.03 1017 10 16 0.00 0.03
10:44 am 10:44 Mostly Cloudy with Nearby Thunderstorms 68 20 63 17 83 83 NW 15 24 30.08 1018 10 16 0.00 0.00
10:56 am 10:56 Mostly Cloudy with Nearby Thunderstorms 67 19.4 62 16.7 84 84 NNE 18 30 30.04 1017 10 16 0.01 0.25
11:06 am 11:06 Mostly Cloudy with Nearby Thunderstorms 66 19 63 17 88 88 E 14 22 30.01 1016 10 16 0.00 0.03
11:17 am 11:17 Mostly Sunny 66 19 63 17 88 88 E 14 22 29.99 1016 10 16 0.00 0.03
11:56 am 11:56 Sunny 69 20.6 64 17.8 84 84 NNW 9 15 30.06 1018 10 16 0.00 0.03
12:56 pm 12:56 Sunny 74 23.3 64 17.8 71 71 SW 6 9 30.06 1018 10 16 0.00 0.00
1:56 pm 13:56 Sunny 77 25 65 18.3 66 66 VRB 6 9 30.03 1017 10 16 0.00 0.00
2:56 pm 14:56 Sunny 80 26.7 66 18.9 62 62 WSW 6 9 30.04 1017 10 16 0.00 0.00
3:56 pm 15:56 Sunny 81 27.2 68 20 65 65 SSW 6 9 30.04 1017 10 16 0.00 0.00
4:56 pm 16:56 Sunny 79 26.1 70 21.1 74 74 S 7 11 30.06 1018 10 16 0.00 0.00
5:56 pm 17:56 Sunny 80 26.7 69 20.6 69 69 Calm 30.04 1017 10 16 0.00 0.00
6:56 pm 18:56 Partly Cloudy 81 27.2 69 20.6 67 67 ENE 3 6 30.05 1018 10 16 0.00 0.00
7:56 pm 19:56 Cloudy 80 26.7 70 21.1 71 71 SE 8 13 30.06 1018 10 16 0.00 0.00
8:56 pm 20:56 Sunny 77 25 71 21.7 82 82 NNE 8 13 30.06 1018 10 16 0.00 0.00
9:56 pm 21:56 Clear 73 22.8 68 20 84 84 NNE 8 13 30.07 1018 10 16 0.00 0.00
10:56 pm 22:56 Partly Cloudy 72 22.2 68 20 87 87 NE 8 13 30.10 1019 10 16 0.00 0.00
11:56 pm 23:56 Cloudy 73 22.8 67 19.4 81 81 NE 7 11 30.12 1020 10 16 0.00 0.00

Powered by AerisWeather